Regional Weather Roundup
Issued by NWS Goodland, KS

Home | Current Version | Previous Version | Graphics & Text | Print | Product List | Glossary On
Versions: 1 2 3 4 5 6 7 8 9 10 11 12 13 14 15 16 17 18 19 20 21 22 23 24 25 26 27 28 29 30 31 32 33 34 35 36 37 38 39 40 41 42 43 44 45 46 47 48 49 50
000
ASUS43 KGLD 271808
RWRGLD

GOODLAND FORECAST AREA HOURLY WEATHER ROUNDUP
NATIONAL WEATHER SERVICE GOODLAND KS
1100 AM MST THU NOV 27 2014

...OFFICIAL OBSERVATIONS...

CITY           SKY/WX    TMP DP  RH WIND       PRES   REMARKS
GOODLAND KS    SUNNY     57  30  35 SW16      30.20F
HILL CITY KS   SUNNY     43  21  41 S18       30.29F
IMPERIAL NEB   SUNNY     41  30  65 S6        30.18F
MCCOOK NEB     SUNNY     44  22  41 S10       30.21F
AKRON CO       PTSUNNY   48  27  44 SW14      30.15F
BURLINGTON CO  SUNNY     56  27  32 SW17      30.19F
LIMON CO       PTSUNNY   57  26  30 NE3       30.22F
$$

...UNOFFICIAL OBSERVATIONS...

CITY           SKY/WX    TMP DP  RH WIND       PRES   REMARKS
COLBY KS       SUNNY     50  32  50 S14       30.20F
GOVE KS          N/A     45  32  60 MISG        N/A
NORTON KS      SUNNY     43  16  33 S14G23    30.24F
SHARON SPRINGS   N/A     54  31  40 SW12G18     N/A
TRENTON NEB      N/A     43  32  65 S6          N/A
YUMA CO          N/A     55  33  44 SW10G17     N/A
$$



USA.gov is the U.S. government's official web portal to all federal, state and local government web resources and services.